GEFSCGP_500_meanwind_126.txt.gz
Wind_Speed
15 14 13 14 14 15 14 12 11 10 10 11 13 14 14 14 15 16 17 16 16 16 16 15 14 13 14 14 14 15 16 17 18 19 20 21 22 23 24 24 25 25 26 26
15 14 14 15 16 15 13 12 10 10 10 12 13 15 16 16 16 16 16 16 15 16 15 14 15 15 14 15 16 16 17 18 20 21 21 22 23 24 25 26 26 26 27 27
15 15 15 15 14 13 12 12 11 10 11 14 15 16 16 17 17 17 18 17 17 15 15 15 15 15 15 16 16 18 19 20 21 22 23 24 25 25 26 26 26 27 27 27
15 15 15 14 14 14 14 14 13 13 14 16 16 17 17 17 17 18 19 18 18 15 15 15 14 15 16 17 18 19 20 21 22 23 24 25 26 26 26 27 26 26 26 27
15 14 14 14 14 14 14 16 15 15 16 17 18 19 18 17 18 19 19 18 16 15 14 15 16 16 16 18 19 20 21 22 23 24 25 26 26 27 27 27 27 26 26 26
15 14 13 12 13 15 16 17 16 16 17 19 18 20 20 19 19 19 19 18 15 16 16 17 17 16 17 18 19 21 22 23 24 25 25 26 26 27 27 27 27 26 26 26
16 15 14 13 14 16 17 16 16 17 19 19 18 20 21 19 20 21 20 19 18 18 17 17 18 18 19 20 21 22 23 24 25 25 25 26 26 26 26 26 26 26 26 26
15 14 15 14 14 16 17 17 17 16 17 17 17 19 19 20 19 19 20 21 21 20 19 19 19 19 20 21 22 23 24 24 24 25 25 25 26 26 26 26 26 26 26 26
14 14 15 14 14 17 18 19 18 18 17 18 17 18 19 19 18 19 19 20 21 20 21 20 20 20 21 22 22 23 23 24 25 25 25 26 25 25 25 25 26 26 26 26
13 13 14 14 15 16 17 17 17 17 16 16 17 16 17 17 19 19 19 21 21 20 20 20 21 21 21 22 22 24 24 25 25 25 25 25 25 25 25 25 26 25 26 27
13 13 13 14 14 14 15 17 17 17 17 17 18 17 17 18 19 20 21 22 22 20 19 19 19 20 21 22 23 24 25 25 25 25 25 25 25 25 25 24 25 25 26 26
14 13 12 13 13 14 15 16 16 17 17 18 18 19 19 21 20 21 21 18 18 18 19 19 19 20 21 22 23 24 24 24 24 24 24 24 24 24 24 24 24 24 24 24
13 13 12 13 14 14 15 15 16 18 18 19 19 19 19 19 21 21 21 19 18 19 20 19 19 21 22 22 22 22 23 23 24 24 23 23 23 24 23 24 24 24 23 23
13 13 13 13 14 15 16 16 17 18 18 18 19 19 19 20 21 21 19 18 19 20 20 20 20 21 21 21 21 21 22 23 23 23 23 23 22 23 23 23 23 22 21 21
12 11 12 13 14 15 15 16 17 17 16 16 18 18 19 20 20 20 19 19 20 20 20 20 20 20 20 20 20 21 21 22 22 22 21 21 21 21 20 20 19 18 18 18
10 10 10 11 12 14 15 15 15 15 16 16 17 18 19 19 18 19 20 21 22 22 21 20 19 19 19 19 20 20 20 20 20 19 18 18 17 17 16 16 16 16 16 16
8 9 10 10 11 12 14 13 14 15 15 15 16 18 18 17 18 19 21 21 21 21 20 19 19 19 19 19 19 18 18 17 16 15 15 14 13 13 12 12 13 13 13 13
8 9 9 10 10 12 11 12 13 14 14 14 16 16 16 17 19 20 20 21 21 20 20 19 19 18 18 17 16 15 15 14 13 12 12 11 11 11 10 9 9 9 10 10
6 7 8 8 8 8 9 10 11 12 13 13 14 15 15 16 17 18 19 20 20 19 18 17 17 16 15 14 13 12 11 10 10 9 9 8 8 8 7 7 7 7 7 7
2 3 4 5 6 7 8 8 9 10 11 12 13 14 15 16 17 18 18 18 17 17 16 15 14 13 12 11 10 10 9 8 7 7 7 6 6 6 5 5 5 4 3 3
1 1 2 4 5 5 5 7 8 9 10 11 12 13 14 15 15 16 16 16 16 15 14 12 11 10 9 9 8 7 6 5 5 5 5 4 4 4 3 3 3 3 2 1
3 3 3 4 5 6 6 7 9 9 9 9 10 12 14 14 14 15 15 15 14 13 11 10 9 8 8 7 6 4 3 3 3 3 3 3 3 3 3 3 3 4 5 5
3 3 4 4 4 4 4 6 8 8 8 9 10 12 12 13 13 14 14 13 11 10 9 9 8 7 6 5 4 3 2 2 3 3 4 4 5 5 6 6 6 7 7 7
3 3 5 4 3 4 5 6 7 8 8 9 10 10 11 12 12 12 12 11 10 9 8 8 7 6 6 5 5 4 4 4 5 5 5 6 6 6 6 7 7 8 8 8
4 5 6 5 5 5 6 7 8 8 8 8 9 10 11 11 11 11 11 10 9 8 7 7 7 7 6 7 6 6 6 5 5 6 6 7 7 7 7 8 8 9 9 10
5 5 5 6 7 7 7 8 8 7 7 8 8 9 10 10 10 10 10 9 8 7 7 7 7 7 7 7 7 7 8 8 8 8 8 8 8 9 9 9 10 11 11 11

GEFSCGP_500_meanwind_132.txt.gz
Wind_Speed
18 18 18 18 19 20 20 21 22 23 23 21 20 19 18 17 16 16 17 17 17 19 19 18 18 19 19 17 17 17 17 17 18 18 18 19 19 20 20 20 21 22 23 24
18 18 19 20 20 20 20 20 21 21 21 20 18 16 15 15 16 17 17 17 17 18 17 17 17 17 18 18 17 16 16 17 18 18 19 21 21 20 21 22 22 23 24 25
18 18 19 19 19 19 19 19 19 19 18 18 18 16 14 14 16 16 17 17 17 16 16 16 17 17 17 17 17 17 17 18 18 19 21 22 22 21 22 22 23 24 25 26
18 19 19 18 18 18 19 19 19 18 18 17 17 16 14 14 15 16 17 17 16 16 16 16 18 19 18 17 18 18 19 19 20 21 22 22 23 23 24 24 24 25 27 27
18 18 18 17 17 17 18 19 19 19 18 18 17 17 15 15 15 16 17 17 17 17 18 18 18 19 19 19 20 21 21 21 21 22 23 24 25 25 26 26 26 27 28 28
18 18 17 16 17 17 18 19 19 19 19 18 17 17 15 15 15 16 18 18 18 18 18 19 19 19 20 21 21 21 22 22 23 23 24 25 26 27 27 27 28 28 28 28
18 17 17 17 17 17 18 18 19 19 19 17 16 16 15 15 16 17 17 18 19 18 18 18 19 21 22 23 24 24 24 24 25 25 26 26 27 27 28 28 28 28 28 28
17 17 16 16 16 16 17 17 18 19 19 18 17 18 16 17 18 17 17 17 18 19 19 19 21 22 24 25 25 25 25 25 26 27 27 27 28 28 28 28 28 28 28 28
16 16 15 15 15 16 17 17 17 18 19 19 18 17 17 18 18 17 18 18 19 19 20 21 21 22 23 23 24 25 25 26 27 27 27 27 28 28 28 27 27 27 27 27
15 14 15 16 16 16 17 17 17 17 18 19 18 17 17 17 17 18 18 19 20 21 21 21 21 21 21 23 24 24 25 26 26 26 27 27 27 27 27 27 27 27 27 27
14 14 14 15 16 16 16 17 17 17 17 18 18 16 16 16 17 18 19 20 20 20 21 20 21 21 21 21 21 23 23 24 25 25 26 26 27 26 26 26 27 26 27 26
14 14 14 14 15 16 17 17 17 17 17 18 18 17 17 18 18 19 20 20 20 21 21 20 21 22 21 21 21 21 22 23 23 24 25 25 26 26 26 25 25 26 26 25
14 14 14 15 15 16 17 17 18 18 18 18 19 18 19 19 20 21 21 21 21 21 21 21 21 20 21 21 22 22 22 22 23 24 24 25 25 25 25 24 24 23 23 23
12 13 14 14 14 15 15 16 17 17 18 19 19 19 20 20 21 21 21 21 21 20 20 20 19 19 20 20 21 21 22 22 23 23 23 23 23 22 22 22 21 21 21 21
10 10 11 12 12 13 14 14 15 16 17 18 18 18 19 19 19 19 19 20 19 19 19 19 19 19 19 20 20 21 22 22 21 21 21 21 20 19 18 18 17 17 17 16
9 9 9 10 11 11 12 13 14 14 15 16 16 17 18 18 18 18 18 18 18 18 18 18 18 18 19 19 19 20 20 20 20 19 19 18 17 16 15 15 14 13 13 13
7 7 7 7 8 9 10 10 11 12 12 13 15 16 17 18 18 18 17 17 18 18 18 18 18 18 18 18 18 18 18 17 17 17 16 15 14 13 12 12 11 10 10 10
6 6 6 6 7 8 8 9 9 10 12 14 14 15 16 16 17 17 16 16 17 17 17 17 16 17 17 17 16 15 14 14 14 13 13 12 11 10 10 9 8 7 7 7
5 5 6 6 7 7 8 9 9 10 11 12 13 14 15 16 16 15 16 15 16 16 16 16 15 15 15 14 13 12 12 11 11 11 10 9 9 8 7 6 5 5 5 5
3 4 4 5 5 7 7 8 8 9 10 11 12 14 15 14 14 13 14 14 15 15 14 14 13 12 11 11 11 10 9 8 8 8 7 7 7 6 6 5 4 3 3 2
3 3 3 4 4 6 7 7 7 8 10 11 12 13 13 12 12 12 13 13 13 13 12 11 10 9 9 9 9 8 7 6 6 6 5 5 4 4 4 3 3 2 2 1
3 3 3 3 4 5 6 6 7 9 10 11 11 11 11 11 11 12 12 12 11 11 9 8 8 8 8 7 6 5 4 4 4 4 4 4 3 4 4 3 3 3 3 3
2 2 3 3 4 5 6 7 8 8 9 10 11 11 11 11 11 11 11 10 9 8 7 8 8 7 6 5 4 3 3 3 3 3 3 3 4 4 4 4 4 4 4 4
1 1 2 3 4 5 6 7 7 8 9 9 10 10 10 10 10 9 9 8 8 8 7 7 7 7 6 5 4 3 2 2 3 4 4 4 5 6 6 6 6 7 7 7
2 2 3 3 4 6 7 8 8 8 8 8 8 9 9 9 8 8 8 8 8 8 7 7 6 6 6 5 4 4 4 4 4 5 5 5 6 7 7 8 8 9 9 9
2 3 3 4 5 6 7 8 8 7 7 8 8 8 7 7 7 7 7 7 6 7 7 7 7 7 7 7 6 6 6 6 6 6 7 7 7 7 7 8 9 9 9 10

GEFSCGP_500_meanwind_138.txt.gz
Wind_Speed
16 16 17 18 19 19 18 18 18 19 19 19 19 20 20 20 20 20 19 19 19 19 19 20 21 21 21 20 21 20 19 19 19 20 20 22 23 23 22 22 23 23 24 26
16 17 17 17 17 17 17 17 18 18 18 18 19 19 19 18 19 19 19 19 19 19 19 19 20 21 21 20 19 19 20 19 19 20 21 21 22 23 23 24 24 25 26 26
17 17 17 16 16 16 16 16 17 18 17 18 18 18 18 17 17 17 17 18 18 18 18 19 19 20 20 20 20 20 20 20 20 20 20 21 22 23 24 25 25 26 26 27
17 17 16 16 15 15 15 16 16 17 16 16 16 15 16 16 16 16 16 17 17 17 18 18 19 19 20 19 19 20 21 21 21 21 21 22 22 23 24 25 27 27 27 27
16 16 16 15 14 15 16 16 16 16 16 16 15 14 15 15 16 16 16 17 17 18 18 19 19 20 20 20 20 20 21 21 21 22 23 23 24 24 25 26 27 27 27 27
15 15 15 15 14 14 15 15 14 14 14 15 15 14 15 15 15 16 17 17 18 19 18 19 20 21 21 21 21 21 22 22 23 24 24 25 25 26 27 27 27 27 28 28
14 14 15 15 15 14 14 13 13 13 14 15 16 16 16 15 16 17 17 17 18 19 19 20 20 21 22 22 23 23 24 24 24 25 25 27 27 28 28 28 28 29 29 29
14 14 15 15 15 14 14 14 13 13 13 14 17 17 16 16 17 17 18 18 19 19 20 21 20 21 22 23 23 24 25 25 25 26 26 27 28 28 28 29 29 28 29 29
15 16 15 15 14 14 14 14 14 14 14 14 16 16 16 16 17 17 17 18 19 20 20 21 22 22 22 23 24 24 25 25 25 26 26 26 27 27 27 28 28 28 28 29
16 16 15 15 15 15 15 15 15 14 13 14 15 16 16 16 16 17 18 18 18 19 21 22 22 23 24 24 25 25 26 26 26 26 26 26 26 26 27 27 28 28 28 28
15 16 15 15 15 15 15 15 15 15 15 14 15 16 17 16 15 16 17 18 20 22 23 23 23 23 23 23 24 25 25 25 26 26 26 25 26 26 26 26 27 28 29 29
15 15 15 14 14 14 14 15 15 15 16 15 15 17 16 16 16 17 18 19 20 21 21 21 22 23 22 23 23 24 24 25 25 25 25 25 25 25 25 25 26 26 26 26
15 14 13 13 13 14 15 14 14 15 15 15 15 17 17 17 17 18 19 19 19 19 20 20 21 21 21 22 23 22 23 23 23 24 24 24 24 24 23 24 24 24 23 24
14 13 13 13 13 13 14 13 14 15 15 15 15 16 18 18 17 18 19 18 19 19 20 20 21 20 20 21 21 22 22 22 22 23 23 23 23 22 21 20 20 21 21 20
13 12 12 12 12 11 12 12 13 14 14 14 15 16 16 17 18 18 18 18 19 19 20 19 19 19 19 19 20 20 20 20 20 20 20 19 19 18 18 17 17 17 17 17
13 12 11 11 11 11 11 12 12 12 13 13 14 15 15 15 17 17 17 17 17 18 19 18 18 17 18 18 18 18 17 17 17 16 16 16 15 15 15 15 15 15 14 14
11 10 10 10 10 10 11 11 11 11 12 13 13 13 13 14 14 14 15 16 16 16 17 16 15 16 17 17 16 16 15 15 15 14 14 13 13 12 12 12 11 11 11 12
9 8 8 8 8 9 9 9 9 10 10 11 12 12 12 12 13 13 13 14 15 15 15 15 15 16 16 15 14 13 13 13 12 12 12 12 12 11 10 10 10 10 10 9
8 8 7 6 7 7 7 7 8 8 9 10 11 11 12 12 13 13 13 14 15 15 14 14 14 13 13 12 11 11 12 12 11 11 11 10 10 9 9 9 9 9 8 7
7 7 6 6 6 6 6 6 7 7 8 9 10 11 11 12 13 13 13 14 14 13 12 12 11 11 10 10 10 11 11 10 9 8 8 8 7 7 6 6 6 6 5 4
6 5 5 5 6 6 5 6 6 6 8 9 10 11 11 12 12 12 13 13 12 12 10 10 9 9 9 9 9 9 8 7 7 6 6 5 5 5 4 4 3 3 2 2
5 4 4 4 5 4 4 5 6 7 8 9 10 10 10 10 11 11 11 11 10 9 8 8 7 7 7 6 6 6 5 5 5 4 4 3 4 3 3 3 2 2 1 1
3 3 3 3 3 4 4 5 6 7 8 9 9 9 9 9 9 9 9 9 8 6 6 6 6 6 5 5 5 4 3 2 2 2 2 3 3 3 3 3 3 3 3 3
2 2 2 2 3 3 4 4 5 6 7 7 7 7 7 7 7 7 7 6 5 5 6 6 6 5 4 4 3 2 2 2 2 3 3 3 4 4 4 5 4 5 5 5
2 1 0 1 1 1 2 4 5 6 6 7 6 6 6 6 5 5 5 5 4 4 5 5 6 6 6 5 5 4 3 3 3 4 3 4 4 5 5 6 6 6 7 6
1 0 1 2 1 2 3 4 5 5 6 6 6 6 5 5 4 5 4 4 5 5 5 6 6 7 7 7 6 5 5 5 5 5 4 5 5 6 7 7 7 7 7 7

GEFSCGP_500_meanwind_144.txt.gz
Wind_Speed
17 17 15 14 13 12 11 13 14 15 17 16 18 20 20 20 22 22 21 21 21 20 21 23 23 24 24 25 24 24 25 26 26 27 27 27 27 27 26 27 27 27 26 25
16 14 13 12 15 16 16 16 16 17 18 17 18 20 20 21 22 22 21 21 23 22 21 22 23 23 24 24 25 25 25 25 26 26 27 27 27 27 27 26 27 27 26 26
12 11 14 17 19 19 18 16 15 17 19 18 19 21 21 21 23 22 23 23 23 22 21 22 23 22 23 24 25 25 25 26 26 27 27 27 26 26 26 27 27 28 28 27
13 15 18 18 18 17 16 15 15 18 20 18 19 21 22 21 22 22 22 23 23 22 22 23 23 23 23 23 23 25 26 27 27 27 27 26 25 26 26 27 27 27 27 27
14 17 17 16 15 15 15 16 17 19 19 18 17 17 20 23 23 21 21 21 22 22 23 23 24 23 23 24 25 26 27 28 28 28 26 25 25 25 25 25 26 26 26 27
16 16 16 16 16 17 15 16 16 17 17 18 17 20 22 24 23 21 21 21 22 22 23 24 23 24 25 25 26 27 27 27 27 26 26 25 25 25 26 26 26 26 26 27
15 15 17 17 16 16 16 16 15 16 17 19 18 21 24 23 23 22 21 21 21 23 24 24 24 25 26 26 26 26 26 26 25 25 26 26 26 26 25 26 26 26 26 26
14 15 15 16 16 16 16 16 16 16 16 18 18 21 25 25 24 23 23 23 22 23 24 24 25 27 27 27 27 27 27 26 26 26 27 27 27 26 26 26 26 26 26 26
16 16 16 15 16 16 15 16 15 16 16 17 18 19 21 21 21 23 24 24 24 25 25 25 26 26 27 27 27 27 26 26 27 28 27 27 27 26 26 26 27 26 26 26
15 15 16 15 15 15 15 15 16 17 17 18 17 19 21 22 21 22 23 24 25 25 25 25 25 25 26 26 26 26 26 26 27 28 28 27 27 27 27 26 25 25 25 24
15 15 14 15 16 16 16 16 16 17 17 17 19 21 21 22 22 21 22 23 23 23 24 24 25 26 26 26 26 27 27 27 27 27 26 27 27 26 26 25 24 24 24 23
17 16 16 14 14 15 16 15 16 18 18 18 20 23 21 22 21 21 22 22 23 23 24 25 26 25 25 25 26 26 26 26 26 26 26 26 26 25 24 24 23 23 23 23
17 17 16 15 15 15 15 14 15 17 18 18 20 24 23 21 21 21 21 22 23 22 23 24 25 25 25 25 25 25 25 25 25 25 24 24 24 24 23 23 22 21 21 20
17 17 16 15 15 14 13 13 15 17 18 19 20 22 22 22 21 21 21 22 23 23 22 23 23 23 23 24 23 23 23 23 23 22 22 22 21 21 21 20 19 19 18 17
15 16 16 15 14 13 13 14 15 17 18 19 20 21 22 23 21 21 21 21 21 21 22 22 22 21 21 21 21 21 21 21 20 19 19 18 19 19 18 17 17 17 17 16
14 15 14 12 12 12 13 14 15 16 17 19 20 21 21 21 20 19 19 20 20 21 21 21 21 21 20 20 20 20 20 20 19 18 18 18 17 16 15 15 15 14 13 13
12 13 12 12 11 13 13 14 14 16 17 18 19 19 19 20 19 19 19 19 19 19 19 19 20 20 20 19 19 19 18 17 16 16 16 15 15 14 13 12 12 11 11 10
12 12 11 11 11 12 14 13 15 16 17 17 18 18 18 18 18 18 18 18 18 18 17 17 18 18 17 17 17 16 15 14 14 14 13 13 13 12 11 10 10 10 9 9
10 10 10 10 11 13 13 13 14 14 14 14 15 15 15 15 16 17 17 17 16 16 16 16 16 16 16 15 14 14 13 13 13 13 12 12 11 10 8 7 8 8 7 7
8 9 9 10 10 11 12 12 13 13 14 13 13 14 14 15 16 16 16 16 15 15 15 14 14 14 13 13 12 12 12 12 11 11 10 9 9 8 7 6 6 5 5 5
6 7 8 8 10 11 11 11 12 12 13 13 13 14 14 14 15 15 15 14 14 14 13 13 12 11 10 11 10 9 9 9 8 8 8 8 8 6 6 5 5 5 4 5
6 7 7 8 10 10 9 10 10 11 11 12 13 13 13 13 13 13 13 13 12 12 11 11 10 9 9 9 8 8 8 8 6 6 6 6 6 5 5 5 5 5 5 5
7 7 7 8 8 8 8 9 9 9 10 11 11 11 12 12 11 11 11 11 10 10 9 9 9 8 8 8 8 8 7 7 6 5 5 5 4 4 5 5 5 5 6 5
7 6 7 7 7 7 7 7 8 8 9 10 10 10 10 10 9 10 9 9 8 8 8 7 7 7 7 6 6 6 6 6 5 5 4 4 3 4 4 5 6 6 6 5
5 5 6 6 6 5 6 6 7 7 8 8 8 7 8 8 8 8 8 8 7 6 7 7 6 6 6 5 5 5 5 5 4 4 4 4 5 5 5 5 5 5 5 6
4 4 5 4 4 5 5 5 6 6 6 6 6 7 7 6 7 7 7 7 7 6 6 6 6 6 6 6 6 5 5 5 5 4 5 5 5 5 5 5 5 5 6 6

GEFSCGP_500_meanwind_150.txt.gz
Wind_Speed
21 22 21 19 19 19 18 18 17 15 13 14 14 14 15 16 17 17 17 18 18 18 19 19 20 20 21 21 22 23 23 23 24 24 25 25 26 27 27 28 28 28 28 28
20 20 19 20 20 19 18 17 16 15 15 15 15 15 16 17 18 19 18 19 18 19 19 20 20 21 22 23 23 23 23 24 24 24 24 26 26 27 28 28 28 27 27 27
19 20 21 21 20 20 18 17 15 15 15 16 17 17 16 16 18 19 19 18 19 21 20 20 21 21 22 23 24 24 25 25 24 24 25 26 27 28 28 28 27 27 26 27
20 20 20 20 20 19 18 15 15 15 15 16 17 18 17 17 18 19 20 20 20 21 21 21 21 22 23 23 24 24 25 25 25 25 25 26 27 27 27 26 26 25 25 25
19 18 18 19 19 18 17 16 16 16 16 17 18 19 19 20 20 21 21 21 21 21 21 21 21 22 23 24 24 25 25 26 26 26 26 26 26 27 25 25 25 26 25 26
17 18 17 17 18 18 17 18 18 18 18 20 19 21 21 21 21 22 23 23 23 23 23 22 21 21 23 24 25 26 26 26 26 27 27 27 27 26 25 25 25 25 25 25
17 17 17 17 18 19 19 20 20 20 20 21 21 23 23 22 22 22 22 22 22 23 23 22 21 21 22 24 25 25 25 25 26 27 26 26 26 26 26 26 25 25 24 24
17 16 17 17 17 18 20 20 20 21 21 21 22 24 23 22 22 22 22 24 24 23 23 22 22 23 24 24 24 24 24 25 26 25 26 25 25 25 25 25 24 24 23 23
15 15 15 17 17 18 19 20 19 20 20 21 22 22 21 21 22 23 23 24 23 22 21 21 22 24 24 24 23 23 24 25 25 24 25 25 24 24 24 23 23 23 23 23
15 15 16 17 18 19 19 19 20 21 21 22 22 21 21 20 22 23 22 22 22 21 21 21 23 24 22 22 22 23 24 24 24 24 24 25 24 24 23 23 23 22 23 23
15 16 16 17 19 20 20 20 20 21 21 21 22 20 20 21 21 21 21 21 21 21 20 21 21 21 21 21 22 23 23 23 23 23 24 24 23 23 22 22 22 22 22 22
16 16 17 17 17 18 19 20 19 21 20 21 21 21 19 21 20 21 21 20 19 19 19 19 20 21 21 21 22 22 22 22 22 22 22 22 21 21 22 21 22 22 22 22
15 16 17 17 18 18 19 19 20 19 20 20 21 21 20 20 21 21 21 20 19 19 18 18 19 20 20 20 20 20 21 21 21 21 21 21 20 20 21 21 21 20 20 20
15 15 15 15 16 19 20 20 19 19 20 21 21 21 20 21 22 22 22 21 20 19 20 18 18 18 19 19 19 19 19 19 19 19 19 19 19 19 19 19 18 18 17 16
15 14 14 15 16 18 19 19 18 19 20 20 20 20 20 21 21 21 21 20 19 19 18 17 17 17 17 18 17 17 18 18 18 17 17 17 17 17 16 15 15 14 15 14
14 14 15 15 15 16 18 18 19 19 19 19 19 19 19 20 21 20 20 20 20 18 17 16 15 16 17 17 17 16 16 16 16 16 16 16 16 15 14 14 13 13 13 13
14 15 15 16 16 16 17 16 16 16 16 17 17 18 18 19 19 19 19 18 18 16 15 15 14 15 15 15 15 15 15 15 15 15 15 15 15 14 13 13 12 12 11 10
13 13 14 14 15 16 15 15 15 15 15 15 15 16 17 17 17 17 16 17 15 14 13 13 14 14 14 14 14 14 14 14 13 13 14 14 13 13 12 11 11 10 9 8
10 10 11 11 13 13 13 12 14 14 13 12 13 14 15 15 15 15 15 15 13 13 13 13 13 14 13 13 12 12 12 12 12 12 13 12 11 11 11 10 9 8 7 6
10 9 9 10 12 12 10 11 11 11 11 11 11 12 12 12 13 13 14 13 13 13 13 13 12 11 11 11 11 11 11 11 11 11 11 10 10 9 9 8 7 6 6 6
8 8 8 8 9 9 9 9 9 10 9 9 10 10 11 11 12 11 12 11 11 11 11 11 10 10 11 10 9 9 9 9 9 9 9 8 8 8 8 7 7 6 6 6
7 7 7 7 7 7 7 7 8 8 8 8 9 9 9 10 10 10 10 9 9 9 9 9 9 9 9 8 8 7 7 7 7 7 7 6 6 6 6 7 6 6 6 7
6 6 6 6 5 5 6 7 7 7 7 7 8 8 9 9 9 8 7 7 8 8 8 8 7 7 7 7 7 7 6 6 6 5 5 5 5 6 5 6 7 7 7 7
4 4 4 4 4 4 4 5 5 6 6 7 8 8 8 8 7 7 6 6 7 7 7 7 6 6 6 6 6 5 5 5 4 5 5 5 5 5 5 5 6 7 6 6
5 4 4 3 3 3 3 3 4 4 5 5 6 6 7 6 6 6 6 6 7 6 5 5 5 5 5 5 4 4 3 4 4 4 4 5 5 5 5 6 6 6 6 5
4 3 3 2 1 1 1 1 1 2 4 4 5 6 5 5 6 6 6 7 7 6 5 5 5 4 4 4 4 4 4 4 4 4 4 5 5 5 5 6 6 6 5 5

GEFSCGP_500_meanwind_156.txt.gz
Wind_Speed
18 18 19 20 22 23 24 25 25 25 24 23 22 21 20 19 18 17 17 17 17 17 18 19 20 21 21 22 23 23 23 23 23 24 25 25 26 27 28 28 28 29 28 28
17 18 20 21 22 22 23 24 23 23 23 23 22 22 21 20 18 18 17 17 17 18 19 20 21 23 23 23 23 23 24 25 25 25 26 27 28 28 29 29 29 29 29 29
16 17 19 20 21 22 22 22 22 23 23 24 23 22 20 17 17 17 17 17 18 20 21 22 23 23 23 24 24 24 25 26 26 27 28 28 28 29 29 29 29 29 28 27
15 17 19 20 21 21 21 20 20 22 23 23 23 21 18 17 17 16 17 18 19 21 21 22 24 25 25 25 25 25 26 26 27 28 28 29 29 29 29 29 29 28 28 27
15 17 18 19 20 20 20 20 21 21 23 23 22 21 19 18 18 17 17 18 20 22 23 24 24 24 25 26 26 27 27 27 27 28 28 28 29 28 28 29 28 28 27 27
16 17 17 18 20 21 21 22 22 22 22 22 21 21 20 18 18 17 17 19 20 22 23 24 25 25 25 26 27 27 27 26 27 28 28 28 28 28 28 28 27 27 26 25
17 17 18 18 19 20 21 22 22 23 23 22 21 21 20 18 18 18 19 20 21 22 23 24 25 24 24 25 26 25 26 26 27 28 28 28 27 27 27 27 27 26 25 25
17 17 18 18 18 18 19 20 22 23 23 22 21 21 20 19 20 20 21 22 22 23 24 25 24 23 24 24 25 25 25 26 27 27 27 27 26 26 26 26 26 25 24 24
16 17 17 18 18 18 18 19 20 22 22 22 21 21 20 19 20 21 22 22 23 24 24 24 24 23 23 23 24 23 24 25 26 26 25 25 25 25 25 24 24 24 24 23
14 16 17 18 18 18 18 19 20 21 22 22 21 20 19 19 20 21 22 22 23 23 24 23 23 22 21 22 22 23 24 25 26 25 24 24 24 24 24 24 24 24 23 23
14 15 16 17 18 18 19 20 21 21 22 22 22 20 19 20 20 21 22 22 21 22 22 22 22 21 21 21 21 22 23 23 24 24 24 24 24 23 23 23 23 23 23 23
16 16 16 16 17 18 19 19 20 21 21 22 22 21 20 21 21 21 22 21 22 22 21 20 20 20 20 19 20 21 22 22 22 22 22 22 22 22 22 22 22 21 22 22
16 17 17 16 17 18 19 19 20 21 22 22 22 21 21 21 22 22 22 22 22 21 20 19 20 19 20 20 20 20 20 20 20 20 20 20 20 20 20 20 20 20 20 20
16 17 17 17 17 18 18 19 20 20 21 22 21 21 21 21 22 22 22 22 22 20 20 19 19 18 19 20 20 19 19 19 19 19 18 19 19 19 19 19 18 18 18 17
18 18 17 17 17 18 18 19 19 20 21 21 21 22 21 21 21 21 22 22 21 20 19 19 18 18 19 19 18 18 18 18 18 18 17 18 18 18 18 17 17 16 16 16
18 18 18 17 17 17 17 18 19 19 20 21 20 20 20 21 21 21 21 20 19 19 18 17 16 16 17 17 17 17 16 17 17 16 16 17 16 17 17 17 17 17 16 15
17 18 18 17 16 16 16 16 18 19 19 20 20 19 20 20 20 19 19 19 18 17 17 16 15 15 16 16 15 14 14 14 15 15 15 15 15 15 15 16 15 15 14 13
16 16 17 17 16 17 15 16 17 18 18 19 19 19 19 19 19 19 19 18 17 15 14 14 13 14 14 14 13 12 13 13 13 13 14 14 14 14 14 14 13 13 12 12
16 16 17 17 16 15 13 14 14 15 16 17 17 17 17 17 17 17 17 16 15 13 12 12 12 12 12 11 11 11 11 12 12 12 13 13 13 12 12 12 12 12 12 12
14 15 15 15 16 15 13 13 12 12 12 13 14 14 15 15 15 15 14 13 13 12 11 11 11 11 10 10 10 10 10 11 11 11 11 11 11 11 11 11 11 11 11 12
13 13 14 14 14 14 13 12 11 11 10 10 11 12 13 14 13 12 12 11 11 11 10 10 9 9 8 9 9 10 10 9 10 10 10 11 11 10 10 10 10 10 11 11
13 13 13 13 12 12 11 11 11 10 10 9 9 10 11 11 11 10 10 9 9 9 8 8 8 8 8 9 9 9 8 9 9 10 10 10 10 10 10 9 10 10 11 11
12 12 11 11 10 10 10 10 10 9 9 8 9 9 9 9 8 9 9 8 8 8 7 8 8 8 8 8 8 8 8 8 9 9 9 9 10 9 9 10 10 10 10 10
11 10 10 9 9 9 9 9 8 8 8 8 7 7 7 7 7 6 7 7 7 7 7 7 8 8 8 8 8 7 7 7 8 8 8 8 9 9 9 9 10 10 10 10
10 10 9 9 9 8 8 7 6 6 7 7 6 6 5 5 5 5 6 6 6 6 6 6 6 6 6 7 7 7 7 7 7 8 8 8 8 8 9 9 10 10 10 10
10 9 8 7 7 7 6 5 5 5 5 5 4 4 3 4 5 5 5 5 5 5 5 5 6 6 6 6 6 6 6 6 7 7 8 7 7 7 8 9 9 10 11 11

GEFSCGP_500_meanwind_162.txt.gz
Wind_Speed
12 13 13 16 17 17 18 18 18 20 19 19 19 20 19 20 20 19 19 19 20 21 20 20 20 21 22 21 22 24 24 25 26 27 27 28 29 30 30 29 28 29 29 30
11 13 14 16 16 16 16 16 17 18 19 18 19 19 18 19 18 18 19 20 21 20 20 21 21 22 22 22 23 24 25 25 27 28 28 29 29 30 29 29 29 29 30 30
10 12 13 14 15 15 15 15 15 17 17 17 18 17 17 16 17 18 19 19 19 19 20 20 20 21 22 23 24 25 26 26 28 28 28 28 29 28 28 28 29 30 30 30
10 11 11 12 14 14 14 16 17 17 16 16 17 15 16 16 17 18 18 18 18 19 20 21 21 22 23 24 25 26 26 26 27 27 27 27 27 27 27 28 29 29 30 30
9 10 10 11 12 14 14 16 16 16 16 17 17 15 15 17 17 18 18 18 18 19 21 21 22 22 23 24 25 25 25 26 26 26 26 27 28 28 28 28 29 29 28 29
9 10 10 11 12 13 13 14 15 15 16 16 16 16 15 17 17 17 17 18 19 20 22 22 22 23 24 24 25 25 26 26 27 27 28 28 28 28 27 27 27 27 27 27
9 10 11 12 12 13 13 12 12 13 14 15 16 16 16 17 16 17 18 19 19 21 22 22 22 23 23 24 24 25 25 25 26 26 27 27 27 27 27 27 26 26 26 26
10 11 11 12 12 13 13 13 13 14 14 15 16 17 16 17 18 19 19 19 18 19 19 21 22 22 23 23 25 25 24 24 25 25 26 26 25 25 26 26 25 25 26 26
10 12 13 13 13 13 14 14 14 15 14 15 16 17 18 18 18 18 18 18 18 19 19 20 21 22 23 23 24 24 24 24 24 24 24 24 24 24 24 24 24 25 25 25
11 12 13 13 13 14 14 15 15 15 15 16 17 17 17 17 17 17 17 18 18 18 19 20 21 22 22 22 22 23 22 22 23 23 23 23 23 23 23 23 23 23 23 23
12 12 13 13 14 14 15 15 15 16 16 16 17 17 18 17 16 16 16 17 18 19 19 20 21 21 21 21 21 21 21 21 22 23 22 22 22 22 22 22 22 22 23 22
13 13 14 15 14 14 14 14 15 16 18 18 17 17 16 16 17 17 17 17 18 18 18 19 19 19 19 19 19 20 20 21 21 21 21 22 21 21 21 21 21 21 21 21
14 14 14 14 14 14 15 15 16 16 17 18 16 16 17 17 18 18 18 18 18 18 19 18 17 17 17 17 18 19 19 20 20 20 20 20 20 19 20 20 20 20 20 18
15 14 14 14 14 16 16 16 17 17 17 17 16 16 17 18 18 18 18 18 19 19 18 17 17 17 17 18 19 19 19 19 19 19 19 19 19 19 19 19 18 18 17 16
16 16 16 16 16 17 17 17 18 18 17 17 17 18 18 18 19 19 19 19 19 19 18 17 17 17 17 17 17 18 18 18 18 18 18 18 18 18 17 17 17 17 16 16
17 17 16 17 17 18 18 17 17 17 18 18 19 19 19 19 19 19 19 18 18 17 17 16 16 16 16 16 16 16 16 16 17 17 16 16 16 16 16 16 16 16 16 15
18 17 17 17 17 17 18 17 17 18 17 18 19 19 18 19 19 19 18 17 17 16 16 15 15 15 15 14 14 14 14 15 16 15 15 15 15 14 14 14 15 15 15 14
17 17 17 17 17 17 16 16 17 17 17 17 17 17 17 17 17 16 16 16 15 15 15 14 14 14 13 13 12 13 13 13 14 14 14 14 14 13 13 13 13 14 14 14
16 16 16 17 17 16 15 15 15 16 16 15 15 15 15 15 15 15 15 14 14 13 13 13 12 12 11 11 11 11 12 12 13 13 13 13 12 12 12 12 13 13 14 14
14 15 15 16 17 17 15 15 14 14 14 13 13 13 14 14 14 13 13 12 11 11 11 10 10 10 9 9 10 10 10 11 12 12 12 12 11 11 12 12 12 13 13 13
14 14 14 15 16 16 16 15 13 13 13 12 12 13 13 13 13 12 11 10 10 9 9 9 9 9 8 8 9 9 9 10 10 11 11 10 10 11 11 11 12 12 12 12
14 14 14 14 14 15 14 13 12 12 12 12 11 11 11 11 11 10 10 9 8 8 9 8 8 8 8 8 8 8 8 8 9 10 10 10 10 10 11 11 11 11 11 11
14 14 14 14 13 12 12 11 11 11 10 10 9 9 9 9 8 8 8 8 7 7 7 7 7 8 7 7 7 7 8 8 8 9 9 9 10 10 10 10 10 10 10 11
14 14 13 13 12 11 10 10 10 10 9 8 8 7 7 7 7 7 7 7 6 6 6 6 7 7 7 6 6 7 7 7 8 8 8 8 8 9 9 9 9 10 10 10
14 13 12 11 10 10 9 9 8 8 7 7 7 6 6 6 6 5 5 5 5 5 5 6 6 6 6 6 6 6 7 7 7 7 8 7 8 9 9 9 9 10 10 11
13 12 11 11 10 9 8 8 7 7 6 6 6 6 5 5 5 4 4 4 4 4 4 5 5 5 5 4 5 6 6 6 6 7 7 7 8 8 8 9 9 10 11 11